Location: La Silve
(44.2414°N, 5.8889°E)
Time: 05:36:56
(UTC+00:00)

SKYMED 3 - Pass Details

Date: 01 December 2020
Orbit: 621 x 623 km, 97.9° (Epoch: 27 January)

Event Time Altitude Azimuth Distance (km) Brightness Sun altitude
Exits shadow 17:46:23 16° 15° (NNE) 1,635 6.4 -18.7°
Maximum altitude 17:49:51 84° 103° (ESE) 634 4.4 -19.3°
Drops below altitude 10° 17:54:11 10° 192° (SSW) 1,989 7.4 -20.1°
Sets 17:56:22 0° 193° (SSW) 2,890 8.3 -20.4°
